"startDT [UTC]","vpos","CH4 [ppm]","stdev(CH4) [ppm]","CO2 [ppm]","stdev(CO2) [ppm]","H2O_reported [%]","stdev(H2O_reported)","CavityPressure [torr]","CavityTemp [C]","OutletValve","CH4_dry [ppm]","CO2_dry [ppm]","DasTemp [C]","EtalonTemp [C]","WarmBoxTemp [C]","MPVPosition","T_ECpre [C]","T_EC1 [C]","T_EC2 [C]","p_inlet [hPa]","p_in [hPa]","p_out [hPa]","T_inlet [C]","RH_inlet [%]","dwpt_inlet [C]","T_vent [C]","RH_vent [%]","dwpt_vent [C]","flow_vent [l min-1]","flow_inlet [l min-1]","dwpt_sample [C]","T_room [C]"
2015-10-10 00:00:00,3.0,1.88391,0.02248,397.961,0.441,0.1032,0.1611,139.976,44.999,31477.51115,1.88830,398.534,34.884,45.067,44.998,0.00,0.09,-272.74,-272.80,-7,482,-949,21.5,14.9,-6.3,21.5,15.2,-6.1,5.73,2.01,-4.0,26.9
2015-10-10 00:01:00,3.0,1.87644,0.00029,397.262,0.043,0.0203,0.0012,139.997,44.998,31449.99822,1.87680,397.359,34.771,45.067,44.998,0.00,0.09,-272.75,-272.81,-8,481,-949,21.5,14.9,-6.3,21.5,15.2,-6.1,5.73,1.90,-4.1,26.9
2015-10-10 00:02:00,3.0,1.87629,0.00037,397.366,0.067,0.0188,0.0020,139.999,44.998,31440.06824,1.87664,397.451,34.670,45.067,44.999,0.00,0.09,-272.75,-272.81,-8,481,-949,21.5,14.9,-6.3,21.5,15.2,-6.1,5.73,1.78,-4.1,26.9
2015-10-10 00:03:00,3.0,1.87616,0.00030,397.497,0.031,0.0166,0.0018,140.000,44.998,31431.54659,1.87649,397.575,34.616,45.067,44.999,0.00,0.09,-272.74,-272.80,-7,481,-949,21.5,14.9,-6.3,21.5,15.2,-6.1,5.73,1.92,-4.1,26.9
2015-10-10 00:04:00,3.0,1.87641,0.00033,397.555,0.042,0.0133,0.0020,139.997,44.998,31425.82817,1.87665,397.620,34.575,45.068,45.000,0.00,0.09,-272.75,-272.80,-7,481,-949,21.5,14.9,-6.3,21.5,15.2,-6.1,5.73,2.12,-4.1,26.9
2015-10-10 00:05:00,3.0,1.87644,0.00024,397.542,0.031,0.0110,0.0017,139.999,44.999,31423.92511,1.87664,397.594,34.564,45.069,45.001,0.00,0.09,-272.74,-272.81,-7,481,-949,21.5,14.9,-6.3,21.5,15.2,-6.1,5.73,1.91,-4.1,26.9
2015-10-10 00:06:00,3.0,1.87645,0.00043,397.562,0.030,0.0084,0.0020,139.999,45.000,31423.71149,1.87663,397.603,34.601,45.069,45.001,0.00,0.09,-272.74,-272.80,-8,482,-949,21.6,14.9,-6.3,21.5,15.2,-6.1,5.73,1.78,-4.0,27.0
2015-10-10 00:07:00,3.0,1.87614,0.00035,397.551,0.022,0.0074,0.0019,140.000,45.000,31427.62374,1.87628,397.586,34.622,45.070,45.002,0.00,0.09,-272.75,-272.80,-7,482,-949,21.6,14.9,-6.2,21.6,15.2,-6.0,5.73,2.12,-4.0,27.0
2015-10-10 00:08:00,3.0,1.87637,0.00031,397.564,0.030,0.0059,0.0018,140.000,45.001,31430.68581,1.87647,397.593,34.631,45.070,45.002,0.00,0.09,-272.74,-272.81,-6,482,-949,21.6,14.9,-6.2,21.6,15.2,-6.0,5.73,1.92,-4.0,27.1
2015-10-10 00:09:00,3.0,1.87630,0.00028,397.576,0.042,0.0055,0.0022,140.002,45.001,31437.15707,1.87640,397.602,34.671,45.070,45.002,0.00,0.09,-272.74,-272.80,-8,482,-949,21.7,14.9,-6.2,21.6,15.2,-6.0,5.73,1.79,-4.0,27.1
2015-10-10 00:10:00,3.0,1.87643,0.00039,397.577,0.029,0.0036,0.0024,140.001,45.001,31439.07353,1.87650,397.594,34.687,45.070,45.001,0.00,0.09,-272.74,-272.80,-8,483,-949,21.7,14.9,-6.2,21.7,15.2,-5.9,5.73,2.10,-4.0,27.1
2015-10-10 00:11:00,3.0,1.87646,0.00041,397.591,0.026,0.0033,0.0011,139.999,45.001,31440.67885,1.87650,397.607,34.664,45.069,45.000,0.00,0.09,-272.74,-272.81,-7,483,-949,21.7,14.9,-6.2,21.7,15.2,-5.9,5.73,2.01,-4.0,27.1
2015-10-10 00:12:00,3.0,1.87653,0.00029,397.586,0.026,0.0027,0.0019,140.001,45.000,31441.86853,1.87659,397.599,34.602,45.069,45.000,0.00,0.09,-272.74,-272.81,-7,484,-949,21.7,14.9,-6.2,21.7,15.2,-5.9,5.73,1.79,-4.0,27.1
2015-10-10 00:13:00,3.0,1.87644,0.00041,397.582,0.030,0.0029,0.0027,140.000,44.999,31440.95631,1.87650,397.596,34.534,45.068,44.999,0.00,0.09,-272.74,-272.80,-7,484,-949,21.8,14.8,-6.2,21.7,15.1,-5.9,5.73,1.87,-4.0,27.0
2015-10-10 00:14:00,3.0,1.87648,0.00026,397.601,0.028,0.0027,0.0023,139.999,44.999,31438.79982,1.87650,397.613,34.472,45.067,44.999,0.00,0.09,-272.75,-272.80,-8,484,-949,21.8,14.8,-6.2,21.8,15.1,-5.9,5.73,2.07,-4.0,27.0
2015-10-10 00:15:00,3.0,1.87657,0.00039,397.593,0.028,0.0016,0.0021,140.000,44.998,31436.09406,1.87664,397.601,34.418,45.067,44.999,0.00,0.09,-272.75,-272.81,-8,485,-949,21.8,14.8,-6.2,21.8,15.1,-5.9,5.73,2.04,-4.0,27.0
2015-10-10 00:16:00,3.0,1.87637,0.00034,397.592,0.023,0.0032,0.0020,139.999,44.999,31437.23821,1.87640,397.607,34.370,45.067,44.999,0.00,0.09,-272.74,-272.80,-8,485,-949,21.9,14.8,-6.2,21.8,15.1,-5.9,5.73,1.82,-4.0,27.1
2015-10-10 00:17:00,3.0,1.87640,0.00034,397.572,0.033,0.0024,0.0017,139.999,44.999,31438.82453,1.87647,397.583,34.370,45.068,45.000,0.00,0.09,-272.74,-272.80,-7,485,-949,21.9,14.7,-6.2,21.8,15.1,-5.9,5.73,1.83,-4.0,27.0
2015-10-10 00:18:00,3.0,1.87646,0.00041,397.592,0.035,0.0016,0.0023,140.002,44.999,31441.65199,1.87647,397.599,34.376,45.068,45.000,0.00,0.09,-272.75,-272.80,-7,485,-949,21.9,14.7,-6.2,21.8,15.1,-5.9,5.73,2.12,-4.0,27.1
2015-10-10 00:19:00,3.0,1.87648,0.00043,397.590,0.036,0.0008,0.0015,140.000,45.000,31443.86090,1.87650,397.594,34.426,45.069,45.001,0.00,0.09,-272.74,-272.80,-8,486,-949,21.9,14.7,-6.2,21.9,15.0,-5.9,5.73,1.91,-4.0,27.1
2015-10-10 00:20:00,0.0,1.93648,0.02148,398.185,0.338,0.3994,0.1698,140.022,45.001,31694.67136,1.94175,400.058,34.473,45.070,45.001,0.00,0.09,-272.74,-272.79,-9,522,-949,22.0,14.6,-6.2,21.9,15.0,-5.9,5.73,1.89,-4.0,27.2
2015-10-10 00:21:00,0.0,1.94378,0.00020,398.053,0.032,0.4906,0.0018,140.001,45.001,31721.04936,1.95330,400.437,34.559,45.070,45.001,0.00,0.09,-272.75,-272.80,-9,523,-949,22.0,14.6,-6.2,21.9,14.9,-5.9,5.73,2.07,-4.0,27.2
2015-10-10 00:22:00,0.0,1.94395,0.00036,398.081,0.053,0.4929,0.0020,140.001,45.001,31731.44810,1.95352,400.476,34.646,45.070,45.001,0.00,0.09,-272.75,-272.81,-8,523,-949,22.1,14.5,-6.2,22.0,14.9,-5.9,5.73,2.09,-4.0,27.2
2015-10-10 00:23:00,0.0,1.94389,0.00039,398.093,0.043,0.4933,0.0016,140.000,45.002,31739.52617,1.95347,400.488,34.715,45.069,45.001,0.00,0.09,-272.74,-272.81,-9,523,-949,22.1,14.5,-6.2,22.0,14.9,-6.0,5.73,1.83,-4.0,27.3
2015-10-10 00:24:00,0.0,1.94420,0.00031,398.104,0.033,0.4933,0.0018,140.000,45.001,31746.54239,1.95376,400.500,34.772,45.069,45.001,0.00,0.09,-272.74,-272.81,-10,524,-949,22.1,14.4,-6.3,22.1,14.8,-6.0,5.73,1.88,-4.0,27.3
2015-10-10 00:25:00,0.0,1.94399,0.00037,398.106,0.034,0.4922,0.0015,140.001,45.001,31755.08605,1.95355,400.495,34.782,45.069,45.000,0.00,0.09,-272.75,-272.81,-10,524,-949,22.1,14.4,-6.3,22.1,14.8,-6.0,5.73,2.06,-4.0,27.3
2015-10-10 00:26:00,0.0,1.94439,0.00037,398.074,0.039,0.4934,0.0016,140.001,45.001,31760.16925,1.95395,400.473,34.739,45.068,44.999,0.00,0.09,-272.74,-272.80,-9,524,-949,22.1,14.3,-6.3,22.1,14.7,-6.0,5.73,2.09,-4.0,27.3
2015-10-10 00:27:00,0.0,1.94450,0.00037,398.070,0.042,0.4938,0.0021,140.001,45.000,31760.87132,1.95407,400.471,34.658,45.068,44.999,0.00,0.09,-272.74,-272.80,-8,525,-947,22.2,14.3,-6.3,22.1,14.7,-6.0,5.73,1.98,-4.0,27.2
2015-10-10 00:28:00,0.0,1.94465,0.00041,398.095,0.045,0.4944,0.0019,140.002,44.999,31761.13479,1.95427,400.496,34.558,45.067,44.998,0.00,0.09,-272.75,-272.81,-11,525,-950,22.2,14.3,-6.3,22.1,14.7,-6.0,5.73,1.90,-4.0,27.2
2015-10-10 00:29:00,0.0,1.94493,0.00042,398.071,0.047,0.4946,0.0019,139.999,44.999,31758.36241,1.95454,400.474,34.476,45.067,44.998,0.00,0.09,-272.75,-272.81,-12,525,-949,22.2,14.3,-6.3,22.1,14.7,-6.0,5.73,1.86,-4.0,27.2
2015-10-10 00:30:00,0.0,1.94521,0.00037,398.069,0.029,0.4944,0.0017,140.000,44.998,31756.23720,1.95481,400.472,34.391,45.067,44.999,0.00,0.09,-272.74,-272.80,-12,523,-947,22.2,14.3,-6.3,22.1,14.7,-6.0,5.73,1.88,-4.0,27.2
2015-10-10 00:31:00,0.0,1.94508,0.00034,398.022,0.072,0.4945,0.0019,139.998,44.998,31754.98516,1.95467,400.427,34.375,45.068,44.999,0.00,0.09,-272.75,-272.80,-8,526,-948,22.2,14.3,-6.3,22.1,14.7,-6.0,5.73,1.99,-4.0,27.2
2015-10-10 00:32:00,0.0,1.94530,0.00026,398.008,0.046,0.4944,0.0022,139.999,44.999,31755.78137,1.95489,400.409,34.375,45.068,45.000,0.00,0.09,-272.75,-272.81,-9,524,-948,22.2,14.3,-6.3,22.1,14.7,-6.0,5.73,2.11,-4.0,27.2
2015-10-10 00:33:00,0.0,1.94524,0.00025,398.059,0.052,0.4959,0.0019,139.999,45.000,31757.26776,1.95489,400.469,34.391,45.069,45.001,0.00,0.09,-272.73,-272.80,-15,527,-948,22.2,14.3,-6.3,22.1,14.7,-6.0,5.73,2.02,-4.0,27.2
2015-10-10 00:34:00,0.0,1.94515,0.00037,397.977,0.029,0.4960,0.0023,140.000,45.000,31761.15465,1.95479,400.387,34.433,45.069,45.001,0.00,0.09,-272.73,-272.80,-7,524,-948,22.2,14.3,-6.3,22.1,14.7,-6.0,5.73,1.82,-4.0,27.3
2015-10-10 00:35:00,0.0,1.94520,0.00033,397.975,0.051,0.4960,0.0020,139.998,45.001,31764.31769,1.95482,400.384,34.485,45.070,45.001,0.00,0.09,-272.75,-272.80,-11,526,-949,22.2,14.3,-6.3,22.1,14.7,-6.0,5.73,1.88,-4.0,27.3
2015-10-10 00:36:00,0.0,1.94520,0.00034,397.993,0.070,0.4965,0.0019,139.997,45.001,31768.67432,1.95485,400.405,34.550,45.069,45.001,0.00,0.09,-272.75,-272.80,-9,525,-948,22.2,14.4,-6.3,22.1,14.7,-6.0,5.73,2.10,-4.0,27.3
2015-10-10 00:37:00,0.0,1.94542,0.00033,397.967,0.045,0.4973,0.0021,140.000,45.001,31771.80208,1.95507,400.382,34.572,45.069,45.001,0.00,0.09,-272.74,-272.80,-9,525,-949,22.1,14.4,-6.3,22.1,14.7,-6.0,5.73,2.06,-4.0,27.3
2015-10-10 00:38:00,0.0,1.94537,0.00046,397.931,0.075,0.4973,0.0019,140.000,45.001,31775.80045,1.95504,400.346,34.587,45.069,45.000,0.00,0.09,-272.74,-272.81,-10,525,-949,22.1,14.4,-6.3,22.1,14.7,-6.0,5.73,1.86,-4.0,27.3
2015-10-10 00:39:00,0.0,1.94562,0.00033,397.919,0.039,0.4972,0.0013,140.001,45.000,31776.32058,1.95530,400.336,34.565,45.069,45.000,0.00,0.09,-272.75,-272.81,-10,526,-949,22.1,14.4,-6.3,22.1,14.7,-6.0,5.73,1.84,-4.0,27.2
2015-10-10 00:40:00,0.0,1.94580,0.00049,397.862,0.049,0.4991,0.0013,139.998,45.000,31776.46673,1.95547,400.286,34.515,45.068,44.999,0.00,0.09,-272.74,-272.80,-9,526,-948,22.1,14.4,-6.2,22.1,14.7,-6.0,5.73,1.95,-4.0,27.2
2015-10-10 00:41:00,0.0,1.94632,0.00048,397.872,0.046,0.4997,0.0018,139.998,44.999,31774.28900,1.95604,400.298,34.485,45.067,44.999,0.00,0.09,-272.75,-272.81,-11,522,-948,22.1,14.5,-6.2,22.1,14.8,-6.0,5.73,2.07,-4.0,27.2
2015-10-10 00:42:00,0.0,1.94654,0.00045,397.948,0.040,0.5014,0.0021,140.000,44.999,31770.97939,1.95625,400.385,34.441,45.067,44.998,0.00,0.09,-272.75,-272.81,-11,528,-949,22.1,14.5,-6.2,22.1,14.8,-5.9,5.73,2.08,-4.0,27.2
2015-10-10 00:43:00,0.0,1.94721,0.00037,397.913,0.039,0.5020,0.0023,139.999,44.999,31768.88669,1.95698,400.352,34.438,45.067,44.999,0.00,0.09,-272.74,-272.81,-10,523,-943,22.1,14.6,-6.2,22.1,14.8,-5.9,5.73,1.94,-4.0,27.2
2015-10-10 00:44:00,0.0,1.94711,0.00042,397.886,0.039,0.5021,0.0022,140.000,44.999,31770.16735,1.95689,400.325,34.437,45.068,44.999,0.00,0.09,-272.74,-272.80,-8,525,-946,22.1,14.6,-6.1,22.1,14.9,-5.9,5.73,1.81,-4.0,27.2
2015-10-10 00:45:00,0.0,1.94761,0.00044,397.886,0.048,0.5025,0.0016,140.000,45.000,31770.27321,1.95735,400.324,34.457,45.068,45.000,0.00,0.09,-272.75,-272.81,-10,525,-949,22.0,14.6,-6.2,22.0,14.9,-5.9,5.73,1.92,-4.0,27.2
2015-10-10 00:46:00,0.0,1.94787,0.00045,397.952,0.044,0.5031,0.0017,139.999,45.000,31770.51573,1.95768,400.397,34.500,45.069,45.001,0.00,0.09,-272.75,-272.80,-10,526,-947,22.0,14.6,-6.2,22.0,14.9,-5.9,5.73,2.12,-4.0,27.2
2015-10-10 00:47:00,0.0,1.94755,0.00039,397.830,0.032,0.5020,0.0024,139.997,45.001,31776.53501,1.95730,400.269,34.503,45.069,45.001,0.00,0.09,-272.74,-272.80,-9,525,-948,22.0,14.6,-6.2,22.0,14.9,-5.9,5.73,2.03,-4.0,27.2
2015-10-10 00:48:00,0.0,1.94750,0.00039,397.855,0.046,0.5014,0.0020,140.000,45.001,31778.90956,1.95725,400.288,34.507,45.069,45.001,0.00,0.31,-270.93,-271.60,-9,525,-948,21.9,14.6,-6.2,22.0,14.9,-5.9,5.42,1.85,-10.2,27.2
2015-10-10 00:49:00,0.0,1.94774,0.00038,397.910,0.047,0.5027,0.0018,139.998,45.001,31779.12892,1.95751,400.355,34.494,45.069,45.001,0.00,0.09,-272.75,-272.80,-9,525,-948,21.9,14.7,-6.2,22.0,14.9,-5.9,5.73,1.86,-4.0,27.2
2015-10-10 00:50:00,0.0,1.94840,0.00037,397.916,0.079,0.5023,0.0015,139.999,45.000,31777.87330,1.95817,400.354,34.463,45.069,45.000,0.00,0.09,-272.74,-272.80,-9,525,-949,22.0,14.6,-6.2,22.0,14.9,-5.9,5.73,2.00,-4.0,27.1
2015-10-10 00:51:00,0.0,1.94885,0.00058,397.937,0.041,0.5035,0.0013,139.997,45.000,31773.76651,1.95865,400.382,34.429,45.068,45.000,0.00,0.09,-272.75,-272.80,-9,525,-948,21.9,14.7,-6.2,22.0,15.0,-5.9,5.73,2.10,-4.0,27.1
2015-10-10 00:52:00,0.0,1.94917,0.00030,397.898,0.043,0.5037,0.0016,140.001,44.999,31775.49110,1.95896,400.347,34.382,45.068,45.000,0.00,0.09,-272.74,-272.81,-9,525,-948,21.9,14.7,-6.2,21.9,15.0,-5.9,5.73,2.03,-4.0,27.1
2015-10-10 00:53:00,0.0,1.94955,0.00038,397.896,0.052,0.5036,0.0016,139.997,44.999,31774.36748,1.95934,400.344,34.392,45.068,45.000,0.00,0.09,-272.73,-272.81,-10,525,-948,21.9,14.7,-6.2,21.9,15.0,-5.9,5.73,1.85,-4.0,27.1
2015-10-10 00:54:00,0.0,1.95002,0.00038,397.878,0.037,0.5044,0.0017,139.998,45.000,31774.20165,1.95985,400.328,34.405,45.069,45.000,0.00,0.09,-272.74,-272.80,-9,525,-948,21.8,14.8,-6.2,21.9,15.0,-5.9,5.73,1.84,-4.0,27.1
2015-10-10 00:55:00,0.0,1.94992,0.00049,397.929,0.046,0.5046,0.0014,140.001,45.000,31775.46430,1.95973,400.381,34.436,45.069,45.000,0.00,0.09,-272.75,-272.81,-9,525,-948,21.8,14.8,-6.1,21.9,15.0,-5.9,5.73,2.05,-4.0,27.0
2015-10-10 00:56:00,0.0,1.95023,0.00033,397.908,0.045,0.5030,0.0014,140.001,45.000,31774.52208,1.96001,400.351,34.462,45.069,45.001,0.00,0.09,-272.75,-272.80,-8,525,-948,21.8,14.8,-6.2,21.9,15.0,-5.9,5.73,2.11,-4.0,27.1
2015-10-10 00:57:00,0.0,1.95036,0.00027,397.938,0.049,0.5033,0.0019,139.998,45.000,31775.32130,1.96018,400.382,34.500,45.069,45.001,0.00,0.09,-272.74,-272.81,-9,525,-949,21.8,14.8,-6.2,21.9,15.0,-5.9,5.73,1.90,-4.0,27.1
2015-10-10 00:58:00,0.0,1.95043,0.00052,397.886,0.038,0.5041,0.0020,140.000,45.000,31779.04916,1.96027,400.337,34.502,45.069,45.001,0.00,0.09,-272.75,-272.80,-9,525,-948,21.7,14.8,-6.2,21.9,15.1,-5.9,5.73,1.82,-4.0,27.0
2015-10-10 00:59:00,0.0,1.95094,0.00045,397.833,0.050,0.5041,0.0022,140.000,45.000,31780.34815,1.96072,400.281,34.503,45.069,45.000,0.00,0.09,-272.75,-272.80,-9,525,-948,21.8,14.8,-6.2,21.9,15.1,-5.9,5.73,1.96,-4.0,27.0
2015-10-10 01:00:00,0.0,1.95141,0.00043,397.829,0.052,0.5038,0.0017,139.999,45.000,31778.07609,1.96121,400.277,34.467,45.068,44.999,0.00,0.09,-272.75,-272.79,-9,525,-948,21.8,14.8,-6.2,21.9,15.1,-5.9,5.73,2.08,-4.0,27.0
2015-10-10 01:01:00,0.0,1.95213,0.00048,397.785,0.041,0.5035,0.0019,139.996,44.999,31771.87431,1.96191,400.231,34.408,45.068,44.999,0.00,0.09,-272.74,-272.79,-9,525,-948,21.8,14.8,-6.1,21.8,15.1,-5.9,5.73,2.07,-4.0,27.0
2015-10-10 01:02:00,0.0,1.95278,0.00047,397.832,0.053,0.5041,0.0019,139.997,44.999,31767.11433,1.96260,400.280,34.372,45.067,44.999,0.00,0.09,-272.75,-272.81,-9,525,-948,21.7,14.9,-6.2,21.8,15.1,-5.9,5.73,1.95,-4.0,27.0
2015-10-10 01:03:00,0.0,1.95308,0.00031,397.793,0.122,0.5039,0.0020,139.997,44.999,31766.47096,1.96294,400.240,34.374,45.068,44.999,0.00,0.09,-272.74,-272.80,-8,525,-948,21.7,14.9,-6.2,21.8,15.1,-5.9,5.73,1.82,-4.0,27.0
2015-10-10 01:04:00,0.0,1.95315,0.00037,397.858,0.088,0.5041,0.0012,139.998,45.000,31766.65520,1.96295,400.305,34.377,45.068,45.000,0.00,0.09,-272.75,-272.80,-9,525,-948,21.7,14.9,-6.1,21.8,15.1,-5.9,5.73,1.90,-4.0,27.0
2015-10-10 01:05:00,0.0,1.95345,0.00027,397.880,0.052,0.5055,0.0019,139.998,45.000,31767.55271,1.96332,400.337,34.424,45.069,45.000,0.00,0.09,-272.75,-272.81,-9,524,-948,21.7,14.9,-6.1,21.8,15.2,-5.9,5.73,2.11,-4.0,27.0
2015-10-10 01:06:00,0.0,1.95355,0.00040,397.919,0.086,0.5063,0.0013,139.998,45.000,31769.19118,1.96344,400.383,34.460,45.069,45.001,0.00,0.09,-272.74,-272.81,-10,525,-948,21.7,15.0,-6.1,21.8,15.2,-5.9,5.73,2.06,-4.0,27.0
2015-10-10 01:07:00,0.0,1.95386,0.00033,397.869,0.037,0.5058,0.0017,140.002,45.000,31771.79686,1.96371,400.325,34.497,45.069,45.000,0.00,0.09,-272.73,-272.80,-9,524,-948,21.6,15.0,-6.1,21.7,15.2,-5.9,5.73,1.86,-4.0,27.0
2015-10-10 01:08:00,0.0,1.95400,0.00036,397.948,0.042,0.5074,0.0018,140.002,45.001,31770.72298,1.96389,400.412,34.491,45.069,45.000,0.00,0.09,-272.75,-272.80,-9,525,-949,21.6,15.1,-6.1,21.7,15.2,-5.8,5.73,1.84,-4.0,26.9
2015-10-10 01:09:00,0.0,1.95412,0.00040,397.937,0.052,0.5070,0.0018,140.000,45.000,31771.93521,1.96402,400.401,34.435,45.068,45.000,0.00,0.09,-272.76,-272.80,-9,525,-948,21.6,15.1,-6.1,21.7,15.3,-5.8,5.73,1.98,-4.0,26.9
2015-10-10 01:10:00,0.0,1.95418,0.00045,397.955,0.052,0.5075,0.0015,139.998,45.000,31768.15497,1.96408,400.422,34.385,45.068,45.000,0.00,0.09,-272.75,-272.80,-8,524,-948,21.6,15.1,-6.1,21.7,15.3,-5.8,5.73,2.10,-4.0,26.9
2015-10-10 01:11:00,0.0,1.95479,0.00037,397.881,0.058,0.5077,0.0015,139.999,45.000,31767.65484,1.96470,400.349,34.377,45.068,45.000,0.00,0.09,-272.75,-272.80,-9,524,-948,21.6,15.1,-6.1,21.7,15.3,-5.8,5.73,2.06,-4.0,26.9
2015-10-10 01:12:00,0.0,1.95549,0.00042,397.736,0.073,0.5064,0.0018,139.998,45.000,31766.52155,1.96540,400.198,34.379,45.068,45.000,0.00,0.09,-272.75,-272.81,-9,524,-948,21.5,15.1,-6.1,21.7,15.3,-5.8,5.73,1.88,-4.0,26.9
2015-10-10 01:13:00,0.0,1.95573,0.00035,397.827,0.038,0.5082,0.0017,140.000,45.000,31765.65275,1.96562,400.295,34.379,45.069,45.000,0.00,0.09,-272.74,-272.80,-9,524,-948,21.5,15.2,-6.1,21.7,15.3,-5.8,5.73,1.83,-4.0,26.9
2015-10-10 01:14:00,0.0,1.95610,0.00031,397.818,0.040,0.5084,0.0019,139.998,45.000,31763.91921,1.96605,400.290,34.377,45.069,45.000,0.00,0.09,-272.75,-272.80,-9,524,-948,21.5,15.2,-6.0,21.6,15.4,-5.8,5.73,1.98,-4.0,26.8
2015-10-10 01:15:00,0.0,1.95595,0.00047,397.784,0.067,0.5073,0.0022,140.000,45.000,31764.22820,1.96585,400.247,34.375,45.069,45.000,0.00,0.09,-272.75,-272.80,-9,524,-948,21.5,15.2,-6.1,21.6,15.4,-5.8,5.73,2.11,-4.0,26.9
2015-10-10 01:16:00,0.0,1.95585,0.00031,397.788,0.048,0.5078,0.0020,139.999,45.000,31766.96322,1.96580,400.257,34.375,45.069,45.000,0.00,0.09,-272.74,-272.81,-8,524,-948,21.5,15.2,-6.1,21.6,15.4,-5.8,5.73,2.05,-4.0,26.9
2015-10-10 01:17:00,0.0,1.95580,0.00042,397.797,0.064,0.5070,0.0018,139.998,45.000,31766.76645,1.96569,400.256,34.404,45.069,45.000,0.00,0.09,-272.74,-272.80,-8,524,-948,21.5,15.2,-6.1,21.6,15.4,-5.8,5.73,1.86,-4.0,26.8
2015-10-10 01:18:00,0.0,1.95585,0.00050,397.806,0.072,0.5073,0.0018,139.999,45.000,31766.12481,1.96575,400.270,34.413,45.069,45.000,0.00,0.09,-272.75,-272.81,-9,524,-948,21.5,15.2,-6.1,21.6,15.4,-5.8,5.73,1.84,-4.0,26.8
2015-10-10 01:19:00,0.0,1.95592,0.00044,397.769,0.088,0.5080,0.0019,140.000,45.000,31765.20368,1.96586,400.239,34.382,45.068,45.000,0.00,0.09,-272.75,-272.81,-9,524,-948,21.5,15.2,-6.1,21.6,15.4,-5.8,5.73,1.98,-4.1,26.8
2015-10-10 01:20:00,0.0,1.95596,0.00040,397.785,0.075,0.5074,0.0020,139.998,45.000,31763.03566,1.96587,400.248,34.331,45.068,44.999,0.00,0.09,-272.75,-272.81,-9,524,-948,21.5,15.2,-6.1,21.6,15.4,-5.8,5.73,2.09,-4.1,26.8
2015-10-10 01:21:00,0.0,1.95605,0.00041,397.829,0.047,0.5092,0.0016,139.998,45.000,31759.73840,1.96605,400.306,34.273,45.068,44.999,0.00,0.09,-272.74,-272.80,-9,524,-948,21.5,15.2,-6.1,21.6,15.5,-5.8,5.73,2.07,-4.0,26.8
2015-10-10 01:22:00,0.0,1.95618,0.00047,397.762,0.057,0.5074,0.0017,140.000,45.000,31755.90084,1.96605,400.224,34.269,45.068,44.999,0.00,0.09,-272.75,-272.81,-9,524,-948,21.5,15.2,-6.0,21.6,15.5,-5.8,5.73,1.93,-4.1,26.8
2015-10-10 01:23:00,0.0,1.95603,0.00045,397.764,0.062,0.5075,0.0016,139.999,45.000,31756.61806,1.96599,400.233,34.291,45.068,45.000,0.00,0.09,-272.74,-272.81,-8,524,-948,21.4,15.3,-6.1,21.5,15.5,-5.8,5.73,1.82,-4.0,26.8
2015-10-10 01:24:00,0.0,1.95628,0.00035,397.709,0.069,0.5075,0.0011,140.001,45.000,31755.51295,1.96617,400.171,34.314,45.069,45.000,0.00,0.09,-272.75,-272.80,-8,524,-948,21.4,15.3,-6.1,21.5,15.5,-5.8,5.73,1.93,-4.0,26.7
2015-10-10 01:25:00,0.0,1.95667,0.00036,397.747,0.039,0.5094,0.0020,140.000,45.000,31755.45650,1.96662,400.222,34.344,45.069,45.000,0.00,0.09,-272.75,-272.80,-8,523,-948,21.4,15.3,-6.1,21.5,15.5,-5.8,5.73,2.11,-4.0,26.8
2015-10-10 01:26:00,0.0,1.95672,0.00031,397.799,0.056,0.5095,0.0016,139.998,45.001,31755.42502,1.96669,400.273,34.375,45.069,45.000,0.00,0.09,-272.75,-272.81,-9,523,-948,21.3,15.4,-6.0,21.5,15.6,-5.8,5.73,2.07,-4.1,26.7
2015-10-10 01:27:00,0.0,1.95689,0.00039,397.880,0.040,0.5106,0.0019,140.002,45.000,31758.65841,1.96686,400.360,34.377,45.069,45.000,0.00,0.09,-272.74,-272.81,-9,523,-948,21.3,15.4,-6.0,21.5,15.6,-5.7,5.73,1.89,-4.0,26.7
2015-10-10 01:28:00,0.0,1.95686,0.00055,397.892,0.105,0.5114,0.0025,140.001,45.000,31757.55755,1.96686,400.381,34.376,45.069,45.000,0.00,0.09,-272.74,-272.80,-9,524,-948,21.3,15.5,-6.0,21.5,15.6,-5.7,5.73,1.84,-4.1,26.7
2015-10-10 01:29:00,0.0,1.95644,0.00047,397.823,0.069,0.5087,0.0013,139.997,45.000,31756.29315,1.96638,400.291,34.376,45.068,45.000,0.00,0.09,-272.75,-272.80,-9,523,-948,21.3,15.4,-6.0,21.5,15.6,-5.7,5.73,1.96,-4.1,26.7
2015-10-10 01:30:00,0.0,1.95577,0.00054,397.653,0.090,0.5070,0.0019,140.001,45.000,31757.72301,1.96570,400.118,34.376,45.068,45.000,0.00,0.09,-272.74,-272.80,-8,523,-948,21.3,15.3,-6.1,21.5,15.6,-5.8,5.73,2.11,-4.1,26.7
2015-10-10 01:31:00,0.0,1.95602,0.00046,397.676,0.074,0.5087,0.0018,139.999,45.000,31757.96536,1.96597,400.147,34.376,45.068,45.000,0.00,0.31,-270.99,-271.54,-8,523,-948,21.3,15.4,-6.0,21.5,15.6,-5.8,5.43,2.17,-10.2,26.7
2015-10-10 01:32:00,0.0,1.95545,0.00039,397.605,0.046,0.5076,0.0024,140.002,45.000,31757.74378,1.96538,400.072,34.374,45.068,45.000,0.00,0.09,-272.75,-272.81,-8,523,-948,21.3,15.3,-6.1,21.4,15.6,-5.8,5.73,1.89,-4.1,26.7
2015-10-10 01:33:00,0.0,1.95592,0.00044,397.532,0.033,0.5067,0.0014,139.998,45.000,31756.07410,1.96579,399.991,34.375,45.069,45.000,0.00,0.09,-272.75,-272.81,-9,523,-948,21.3,15.3,-6.1,21.4,15.6,-5.8,5.73,1.83,-4.1,26.7
2015-10-10 01:34:00,0.0,1.95617,0.00030,397.586,0.048,0.5068,0.0024,139.998,45.000,31756.45419,1.96608,400.045,34.346,45.069,45.000,0.00,0.09,-272.74,-272.80,-9,523,-948,21.3,15.4,-6.1,21.4,15.6,-5.8,5.73,1.97,-4.1,26.7
2015-10-10 01:35:00,0.0,1.95622,0.00046,397.554,0.060,0.5091,0.0016,139.998,45.000,31756.61018,1.96617,400.026,34.315,45.069,45.000,0.00,0.09,-272.75,-272.81,-9,523,-948,21.3,15.4,-6.0,21.4,15.6,-5.8,5.73,2.09,-4.1,26.7
2015-10-10 01:36:00,0.0,1.95650,0.00042,397.593,0.043,0.5085,0.0019,140.001,45.000,31756.84465,1.96643,400.062,34.311,45.069,45.000,0.00,0.09,-272.75,-272.81,-9,523,-948,21.3,15.5,-6.0,21.4,15.7,-5.7,5.73,2.07,-4.1,26.7
2015-10-10 01:37:00,0.0,1.95683,0.00037,397.641,0.066,0.5102,0.0022,139.999,45.000,31754.29320,1.96680,400.116,34.318,45.069,45.000,0.00,0.09,-272.74,-272.80,-8,523,-948,21.3,15.5,-6.0,21.4,15.7,-5.7,5.73,1.87,-4.1,26.7
2015-10-10 01:38:00,0.0,1.95718,0.00038,397.624,0.049,0.5097,0.0016,140.000,45.000,31755.31933,1.96714,400.100,34.367,45.069,45.001,0.00,0.09,-272.75,-272.80,-8,523,-948,21.3,15.5,-6.0,21.4,15.7,-5.7,5.73,1.84,-4.1,26.7
2015-10-10 01:39:00,0.0,1.95721,0.00040,397.596,0.059,0.5107,0.0017,140.001,45.000,31756.63223,1.96722,400.077,34.376,45.069,45.001,0.00,0.09,-272.76,-272.80,-8,523,-948,21.3,15.5,-6.0,21.4,15.7,-5.7,5.73,2.04,-4.1,26.7
2015-10-10 01:40:00,0.0,1.95754,0.00033,397.523,0.048,0.5094,0.0022,139.998,45.000,31756.11382,1.96748,399.996,34.428,45.069,45.001,0.00,0.09,-272.75,-272.80,-9,523,-948,21.3,15.5,-6.0,21.4,15.7,-5.7,5.73,2.12,-4.1,26.7
2015-10-10 01:41:00,0.0,1.95721,0.00051,397.463,0.042,0.5091,0.0014,139.997,45.001,31757.42873,1.96717,399.937,34.429,45.069,45.001,0.00,0.09,-272.74,-272.80,-9,523,-948,21.3,15.5,-6.0,21.4,15.7,-5.7,5.73,1.98,-4.1,26.7
2015-10-10 01:42:00,0.0,1.95771,0.00044,397.443,0.052,0.5089,0.0022,140.000,45.000,31759.89455,1.96765,399.909,34.379,45.068,45.000,0.00,0.09,-272.74,-272.81,-9,523,-948,21.3,15.5,-6.0,21.4,15.7,-5.7,5.73,1.84,-4.1,26.7
2015-10-10 01:43:00,0.0,1.95816,0.00044,397.549,0.035,0.5105,0.0018,140.000,45.000,31756.37408,1.96812,400.029,34.375,45.068,44.999,0.00,0.09,-272.75,-272.80,-8,523,-948,21.3,15.6,-5.9,21.4,15.7,-5.7,5.73,1.87,-4.1,26.7
2015-10-10 01:44:00,0.0,1.95816,0.00033,397.569,0.059,0.5116,0.0018,139.997,45.000,31754.60240,1.96818,400.052,34.375,45.068,45.000,0.00,0.09,-272.74,-272.80,-8,523,-948,21.3,15.6,-5.9,21.4,15.8,-5.7,5.73,2.05,-4.1,26.7
2015-10-10 01:45:00,0.0,1.95791,0.00034,397.496,0.054,0.5115,0.0021,140.001,45.000,31757.70298,1.96794,399.981,34.410,45.068,45.000,0.00,0.09,-272.75,-272.81,-8,523,-948,21.3,15.6,-5.9,21.4,15.8,-5.7,5.73,2.12,-4.1,26.7